Regional Weather Roundup
Issued by NWS

Home | Current Version | Previous Version | Graphics & Text | Print | Product List | Glossary On
Versions: 1 2 3 4 5 6 7 8 9 10 11 12 13 14 15 16 17 18 19 20 21 22 23 24 25 26 27 28 29 30 31 32 33 34 35 36 37 38 39 40 41 42 43 44 45 46 47 48 49 50
000
ASUS43 KMKX 281721
RWRWI

WISCONSIN REGIONAL WEATHER ROUNDUP
NATIONAL WEATHER SERVICE MILWAUKEE/SULLIVAN WI
1100 AM CST SUN DEC 28 2014

NOTE: "FAIR" INDICATES FEW OR NO CLOUDS BELOW 12,000 FEET WITH NO
SIGNIFICANT WEATHER AND/OR OBSTRUCTIONS TO VISIBILITY.

WIZ001-002-006>008-014>016-023>028-281800-
NORTHWEST WISCONSIN

CITY           SKY/WX    TMP DP  RH WIND       PRES   REMARKS
SUPERIOR ARPT  SUNNY     14  -1  53 NW13      30.22R WCI  -1
ASHLAND        SUNNY     17   5  59 W9        30.16R WCI   6
HAYWARD        PTSUNNY   18  10  71 N7        30.13R WCI   9
SIREN          CLOUDY    19  12  76 N7        30.16S WCI   9
CUMBERLAND     LGT SNOW  19  14  79 N5        30.13R WCI  13
RICE LAKE      LGT SNOW  17  13  82 NW3       30.16R
CHETEK         LGT SNOW  17  12  82 CALM      30.15R
LADYSMITH      LGT SNOW  14  12  92 CALM      30.14S
EAU CLAIRE     CLOUDY    14   9  80 CALM      30.15S
MENOMONIE      CLOUDY    14  11  90 CALM      30.17R
NEW RICHMOND   LGT SNOW  15  10  82 CALM      30.16S
OSCEOLA        FLURRIES  17  13  84 CALM      30.20R
$$

WIZ003>005-009-010-017-018-281800-
NORTH CENTRAL WISCONSIN

CITY           SKY/WX    TMP DP  RH WIND       PRES   REMARKS
MANITOWISH WTR FLURRIES  17  11  77 W12       30.05S WCI   4
ARBOR VITAE    MOSUNNY   17  13  86 NW3       30.06S
WOODRUFF       MOSUNNY   17  13  86 NW3       30.06S
RHINELANDER    CLOUDY    14  11  87 W8        30.06F WCI   3
EAGLE RIVER    MOSUNNY   17  11  75 NW10      30.04S WCI   5
LAND O LAKES   FLURRIES  18  13  79 NW9       30.04S WCI   7
PHILLIPS       CLOUDY    15  11  87 CALM      30.08F
TOMAHAWK       LGT SNOW  17  13  86 CALM      30.08F
MEDFORD        LGT SNOW  13  10  88 W3        30.10R
MERRILL        LGT SNOW  14  12  91 CALM      30.10S
$$

WIZ029-030-035-036-043>047-281800-
CENTRAL WISCONSIN

CITY           SKY/WX    TMP DP  RH WIND       PRES   REMARKS
WAUSAU         LGT SNOW  16  13  88 NW5       30.10F FOG     WCI   9
MOSINEE        LGT SNOW  16  16 100 W3        30.12R
MARSHFIELD     CLOUDY    14   9  80 W7        30.12R WCI   4
STEVENS POINT  PTSUNNY   16  13  88 W3        30.13F
WAUPACA        SUNNY     26  18  71 SW5       30.15S WCI  20
WAUTOMA        SUNNY     24  18  78 W5        30.16S WCI  18
WISC RAPIDS    SUNNY     19  13  77 SW3       30.15S
CAMP DOUGLAS   MOSUNNY   23  21  93 VRB1      30.15S
$$

WIZ011>013-019>022-031-037>040-048>050-281800-
NORTHEAST WISCONSIN

CITY           SKY/WX    TMP DP  RH WIND       PRES   REMARKS
ANTIGO         LGT SNOW  14  12  92 W5        30.08S WCI   6
SHAWANO        SUNNY     22  15  74 W6        30.14S WCI  14
OCONTO         SUNNY     22  16  75 W10       30.12F WCI  12
STURGEON BAY   SUNNY     21  14  73 W12       30.11F WCI   9
GREEN BAY      SUNNY     25  18  74 W9        30.13F WCI  15
MANITOWOC      SUNNY     26  20  77 NW13G22   30.13S WCI  15
APPLETON       MOSUNNY   21  16  79 W7        30.13S WCI  13
CLINTONVILLE   SUNNY     23  16  74 NW7       30.13F WCI  15
OSHKOSH        SUNNY     23  17  78 W5        30.14F WCI  17
$$

WIZ032>034-041-042-053>061-281800-
SOUTHWEST WISCONSIN

CITY           SKY/WX    TMP DP  RH WIND       PRES   REMARKS
LA CROSSE      SUNNY     22  13  68 VRB3      30.19R
SPARTA         SUNNY     22  15  75 W3        30.18S
VIROQUA        SUNNY     22  20  90 CALM      30.13F
BOSCOBEL       SUNNY     25  17  72 SW5       30.18F WCI  19
PRAIRIE DU CHI SUNNY     24  16  71 CALM      30.19F
PLATTEVILLE    SUNNY     25  20  82 CALM      30.18F
$$

WIZ056-057-062-063-064-067-068-281800-
SOUTH CENTRAL WISCONSIN

CITY           SKY/WX    TMP DP  RH WIND       PRES   REMARKS
REEDSBURG      PTSUNNY   24  17  74 W6        30.15F WCI  17
BARABOO/DELLS  SUNNY     25  17  72 W5        30.14F WCI  19
LONE ROCK      SUNNY     28  16  60 CALM      30.18S
MINERAL POINT  SUNNY     28  21  74 W3        30.15F
MADISON        MOSUNNY   25  17  72 W5        30.16S WCI  19
MIDDLETON      SUNNY     29  18  62 W6        30.16F WCI  23
WATERTOWN      SUNNY     27  19  72 W6        30.15F WCI  20
MONROE         SUNNY     28  21  74 SW6       30.15F WCI  22
JANESVILLE     SUNNY     28  19  69 W6        30.17S WCI  22
$$

WIZ051-052-058>065-066-070>072-281800-
SOUTHEAST WISCONSIN

CITY           SKY/WX    TMP DP  RH WIND       PRES   REMARKS
MILWAUKEE      MOSUNNY   30  16  56 W7        30.16S WCI  23
WAUKESHA       SUNNY     25  18  74 W9        30.15S WCI  15
MILWAUKEE/TIMM SUNNY     28  16  59 W9        30.16S WCI  20
RACINE         SUNNY     29  16  58 W7        30.17F WCI  22
BURLINGTON     SUNNY     28  18  66 W8        30.16F WCI  20
KENOSHA        SUNNY     29  15  56 W8        30.16F WCI  21
FOND DU LAC    SUNNY     24  15  68 SW6       30.15S WCI  17
SHEBOYGAN      SUNNY     26  18  71 W10       30.13S WCI  16
WEST BEND      SUNNY     28  18  64 NW9       30.14S WCI  20
JUNEAU         SUNNY     24  17  74 W3        30.16S
$$

LSZ147-162-281800-
LAKE SUPERIOR

STATION/POSITION TIME  TEMP    WIND        PRES    WAVE
                       AIR SEA DIR/SP/G            HT/PER
                 (UTC) (F)     (DEG/KT/KT) (MB)    (FT/S)
DEVILS ISLAND    1700   13     330/ 11/ 14 1023.3R
PORT WING        1600   15     310/ 13/ 17 1022.0R
SAXON HARBOR     1600   21     300/ 13/ 19 1020.3R
$$

LMZ867-665-643>646-281800-
LAKE MICHIGAN

STATION/POSITION TIME  TEMP    WIND        PRES    WAVE
                       AIR SEA DIR/SP/G            HT/PER
                 (UTC) (F)     (DEG/KT/KT) (MB)    (FT/S)
CHAMBERS ISLAND  1600   22     230/  7/ 11 1019.6R
NORTHPORT PIER   1704   24     290/  4/ 16 1019.0S
SISTER BAY       1613          280/ 13/ 16   N/A
ALGOMA LAKESHORE 1545          310/ 10/ 19   N/A
KEWAUNEE LAKESHO 1600   23     290/ 12/ 19 1018.8R
SHEBOYGAN LAKESH 1700   26 36  290/ 10/ 13 1021.6F
PORT WASHINGTON  1600   27     280/  8/ 10 1021.7
MILWAUKEE LAKESH 1700   29     260/  7/  9   N/A
KENOSHA   LAKESH 1700   28     270/  7/ 11 1021.7S
$$

TC  - TEMPERATURE IN CELSIUS
VSB - VISIBILITY IN STATUTE MILES
WCI - WIND CHILL INDEX
HX  - HEAT INDEX



USA.gov is the U.S. government's official web portal to all federal, state and local government web resources and services.